Regional Weather Roundup
Issued by NWS

Home | Current Version | Previous Version | Text Only | Print | Product List | Glossary Off
Versions: 1 2 3 4 5 6 7 8 9 10 11 12 13 14 15 16 17 18 19 20 21 22 23 24 25 26 27 28 29 30 31 32 33 34 35 36 37 38 39 40 41 42 43 44 45 46 47 48 49 50

000
ASUS45 KCYS 200810
RWRWY

WYOMING REGIONAL WEATHER ROUNDUP
NATIONAL WEATHER SERVICE CHEYENNE WY
100 AM MST SAT DEC 20 2014

NOTE:  "FAIR" INDICATES FEW OR NO CLOUDS BELOW 12,000 FEET
WITH NO SIGNIFICANT WEATHER AND/OR OBSTRUCTIONS TO VISIBILITY.

WYZ001-200900-
YELLOWSTONE NATIONAL PARK

CITY           SKY/WX    TMP DP  RH WIND       PRES   REMARKS
LK YELLOWSTONE   N/A     25  21  85 VRB3      30.01S
W YELLOWSTONE  NOT AVBL

$$
WYZ002>013-054>058-071-098>099-200900-
NORTHERN WYOMING

CITY           SKY/WX    TMP DP  RH WIND       PRES   REMARKS
JACKSON        CLOUDY    30  28  93 W3        30.03F
CODY           FAIR      39  23  52 W12G23    29.91F WCI  32
GREYBULL       FAIR      15  12  88 W5        29.98S WCI   8
WORLAND        FAIR      14  10  84 S7        29.96F WCI   4
SHERIDAN       CLOUDY    28  23  81 CALM      29.90S
BUFFALO        CLOUDY    36  21  54 W5        29.90R WCI  32
GILLETTE       MOCLDY    33  23  66 SW14      29.88S WCI  23
HULETT           N/A    N/A N/A N/A MISG        N/A
NEWCASTLE      FAIR      23  19  86 CALM      29.94S

$$
WYZ014>020-022>026-101>103-200900-
CENTRAL WYOMING

CITY           SKY/WX    TMP DP  RH WIND       PRES   REMARKS
BIG PINEY      FAIR      21  17  84 CALM      30.06F
PINEDALE       CLOUDY    23  21  93 CALM      30.06F
DUBOIS         NOT AVBL
LANDER         FAIR       8   5  87 SE3       29.97F
RIVERTON       FAIR       7   4  87 NW3       29.98F
CASPER         FAIR      30  22  72 SW16      29.98S WCI  19
DOUGLAS        FAIR      29  20  69 W7        29.95S WCI  22

$$
WYZ021-027>030-104>119-200900-
SOUTHERN WYOMING

CITY           SKY/WX    TMP DP  RH WIND       PRES   REMARKS
EVANSTON       FAIR      29  22  75 SW15      30.08F WCI  18
KEMMERER       CLOUDY    30  25  80 SW5       30.08F WCI  25
FORT BRIDGER   CLOUDY    32  24  73 W12       30.12S WCI  23
ROCK SPRINGS   CLOUDY    28  21  75 SW8       30.09S WCI  20
DIXON          CLOUDY    23  19  86 NW3       30.17R
RAWLINS        CLOUDY    28  20  71 S10G22    30.06S WCI  19
SARATOGA       CLOUDY    27  21  80 SE7       30.08F WCI  19
LARAMIE        FAIR      28  16  60 SW9       30.02F WCI  19
CHEYENNE       FAIR      29  15  56 MISG      29.97F
TORRINGTON     FAIR     N/A N/A N/A E7        29.95F
PINE BLUFFS    FAIR      21  18  86 SW7       29.98F WCI  13

$$



USA.gov is the U.S. government's official web portal to all federal, state and local government web resources and services.